User: anonymous   Login
Location: Irma
(52.9170°N, 111.2330°W)
Time: 02:27:46
(UTC-06:00)
Language:

Cosmos 2279 Rocket - Orbit

View from above orbital plane
View from above orbital plane
View from above satellite
View from above satellite

Ground track
Ground track

The orbit data is extracted from the following two-line orbital elements,

1 23093U 94024B   15090.16914322  .00000096  00000-0  80485-4 0  9993
2 23093 082.9509 356.1535 0011392 108.8010 251.4385 13.77650050520047
Epoch (UTC): 31 March 2015 04:03:33
Eccentricity: 0.0011392
inclination: 82.9509°
perigee height: 964 km
apogee height: 980 km
right ascension of ascending node: 356.1535°
argument of perigee: 108.8010°
revolutions per day: 13.77650050
mean anomaly at epoch: 251.4385°
orbit number at epoch: 52004

The dashed part of the orbit path shows where the satellite is in the earth's shadow,  

DLR